Location: Bremen
(53.0793°N, 8.8017°E)
Time: 21:15:36
(UTC+01:00)

S-56A Canister/Altair - Pass Details

Date: 09 December 2021
Orbit: 634 x 2499 km, 38.9° (Epoch: 26 January)

Event Time Altitude Azimuth Distance (km) Brightness Sun altitude
Rises 03:37:59 0° 264° (W) 4,445 - -41.6°
Reaches altitude 10° 03:43:02 10° 242° (WSW) 3,033 - -40.9°
Maximum altitude 03:46:18 14° 215° (SW) 2,499 - -40.4°
Drops below altitude 10° 03:49:08 10° 186° (S) 2,534 - -40.0°
Sets 03:52:40 0° 159° (SSE) 3,219 - -39.5°
